User: anonymous   Login
Location: Buttermere
(51.3333°N, 1.5167°W)
Time: 10:16:57
(UTC+00:00)
Language:

Cosmos 1766 - Orbit

View from above orbital plane
View from above orbital plane
View from above satellite
View from above satellite

Ground track
Ground track

The orbit data is extracted from the following two-line orbital elements,

1 16881U 86055A   20337.82992520  .00001388  00000-0  80611-4 0  9990
2 16881  82.5093 225.4798 0017726  70.2384 290.0756 15.11186864851203
Epoch (UTC): 02 December 2020 19:55:05
Eccentricity: 0.0017726
inclination: 82.5093°
perigee height: 520 km
apogee height: 545 km
right ascension of ascending node: 225.4798°
argument of perigee: 70.2384°
revolutions per day: 15.11186864
mean anomaly at epoch: 290.0756°
orbit number at epoch: 85120

The dashed part of the orbit path shows where the satellite is in the earth's shadow,  

DLR